Time,TemperatureF,DewpointF,PressureIn,WindDirection,WindDirectionDegrees,WindSpeedMPH,WindSpeedGustMPH,Humidity,HourlyPrecipIn,Conditions,Clouds,dailyrainin,SoftwareType,DateUTC
2013-02-13 00:09:00,32.5,26.7,29.97,SW,235,0.0,0.0,79,0.00,,,0.00,Wunderground v.1.15,2013-02-13 05:09:00,
2013-02-13 00:18:00,31.8,26.3,29.96,SW,235,0.0,0.0,80,0.00,,,0.00,Wunderground v.1.15,2013-02-13 05:18:00,
2013-02-13 00:28:00,31.6,27.0,29.96,North,355,0.0,1.0,83,0.00,,,0.00,Wunderground v.1.15,2013-02-13 05:28:00,
2013-02-13 00:39:00,31.6,27.0,29.95,NNW,344,0.0,1.0,83,0.00,,,0.00,Wunderground v.1.15,2013-02-13 05:39:00,
2013-02-13 00:49:00,31.9,27.6,29.95,NW,326,1.0,1.0,84,0.00,,,0.00,Wunderground v.1.15,2013-02-13 05:49:00,
2013-02-13 00:59:00,31.8,27.5,29.95,NNW,340,2.0,2.0,84,0.00,,,0.00,Wunderground v.1.15,2013-02-13 05:59:00,
2013-02-13 01:04:00,31.9,27.6,29.95,NNW,340,2.0,2.0,84,0.00,,,0.00,Wunderground v.1.15,2013-02-13 06:04:00,
2013-02-13 01:19:00,32.2,28.2,29.94,NNW,337,3.0,3.0,85,0.00,,,0.00,Wunderground v.1.15,2013-02-13 06:19:00,
2013-02-13 01:24:00,32.2,28.2,29.95,NNW,336,3.0,3.0,85,0.00,,,0.00,Wunderground v.1.15,2013-02-13 06:24:00,
2013-02-13 01:38:00,32.0,28.3,29.94,North,5,2.0,5.0,86,0.00,,,0.00,Wunderground v.1.15,2013-02-13 06:38:00,
2013-02-13 01:49:00,31.8,28.1,29.94,NNE,14,4.0,4.0,86,0.00,,,0.00,Wunderground v.1.15,2013-02-13 06:49:00,
2013-02-13 01:59:00,31.6,28.2,29.94,NNE,20,2.0,2.0,87,0.00,,,0.00,Wunderground v.1.15,2013-02-13 06:59:00,
2013-02-13 02:08:00,31.3,27.9,29.95,NNW,336,2.0,2.0,87,0.00,,,0.00,Wunderground v.1.15,2013-02-13 07:08:00,
2013-02-13 02:18:00,31.1,28.0,29.94,NNW,336,1.0,2.0,88,0.00,,,0.00,Wunderground v.1.15,2013-02-13 07:18:00,
2013-02-13 02:29:00,30.9,27.8,29.94,NNW,336,1.0,1.0,88,0.00,,,0.00,Wunderground v.1.15,2013-02-13 07:29:00,
2013-02-13 02:39:00,30.8,27.9,29.95,NNW,336,0.0,0.0,89,0.00,,,0.00,Wunderground v.1.15,2013-02-13 07:39:00,
2013-02-13 02:49:00,30.6,27.7,29.94,NNW,336,0.0,1.0,89,0.00,,,0.00,Wunderground v.1.15,2013-02-13 07:49:00,
2013-02-13 02:59:00,30.4,27.5,29.94,NNW,336,0.0,0.0,89,0.00,,,0.00,Wunderground v.1.15,2013-02-13 07:59:00,
2013-02-13 03:09:00,30.0,27.2,29.94,NNW,336,0.0,0.0,89,0.00,,,0.00,Wunderground v.1.15,2013-02-13 08:09:00,
2013-02-13 03:19:00,29.8,27.0,29.94,NNW,336,0.0,0.0,89,0.00,,,0.00,Wunderground v.1.15,2013-02-13 08:19:00,
2013-02-13 03:29:00,29.5,26.9,29.93,NNW,336,1.0,2.0,90,0.00,,,0.00,Wunderground v.1.15,2013-02-13 08:29:00,
2013-02-13 03:39:00,29.3,26.7,29.93,NNW,336,0.0,0.0,90,0.00,,,0.00,Wunderground v.1.15,2013-02-13 08:39:00,
2013-02-13 03:49:00,28.9,26.3,29.92,NNW,336,0.0,0.0,90,0.00,,,0.00,Wunderground v.1.15,2013-02-13 08:49:00,
2013-02-13 03:58:00,28.6,26.0,29.92,NNW,336,0.0,0.0,90,0.00,,,0.00,Wunderground v.1.15,2013-02-13 08:58:00,
2013-02-13 04:08:00,28.1,25.5,29.92,NNW,336,1.0,1.0,90,0.00,,,0.00,Wunderground v.1.15,2013-02-13 09:08:00,
2013-02-13 04:14:00,28.0,25.4,29.91,NNW,336,1.0,1.0,90,0.00,,,0.00,Wunderground v.1.15,2013-02-13 09:14:00,
2013-02-13 04:29:00,28.4,26.1,29.91,NNW,336,1.0,1.0,91,0.00,,,0.00,Wunderground v.1.15,2013-02-13 09:29:00,
2013-02-13 04:39:00,28.7,26.4,29.90,North,360,2.0,3.0,91,0.00,,,0.00,Wunderground v.1.15,2013-02-13 09:39:00,
2013-02-13 04:49:00,28.7,26.4,29.90,North,5,3.0,3.0,91,0.00,,,0.00,Wunderground v.1.15,2013-02-13 09:49:00,
2013-02-13 04:59:00,28.5,26.2,29.90,NNE,13,3.0,3.0,91,0.00,,,0.00,Wunderground v.1.15,2013-02-13 09:59:00,
2013-02-13 05:08:00,28.4,26.4,29.90,NNE,20,3.0,4.0,92,0.00,,,0.00,Wunderground v.1.15,2013-02-13 10:08:00,
2013-02-13 05:18:00,28.2,26.2,29.89,NNE,27,3.0,3.0,92,0.00,,,0.00,Wunderground v.1.15,2013-02-13 10:18:00,
2013-02-13 05:39:00,27.9,25.9,29.89,NNE,18,4.0,7.0,92,0.00,,,0.00,Wunderground v.1.15,2013-02-13 10:39:00,
2013-02-13 05:48:00,27.8,25.8,29.88,NNE,19,5.0,5.0,92,0.00,,,0.00,Wunderground v.1.15,2013-02-13 10:48:00,
2013-02-13 05:59:00,27.8,25.8,29.87,North,11,3.0,3.0,92,0.00,,,0.00,Wunderground v.1.15,2013-02-13 10:59:00,
2013-02-13 06:08:00,27.8,25.8,29.87,North,9,3.0,4.0,92,0.00,,,0.00,Wunderground v.1.15,2013-02-13 11:08:00,
2013-02-13 06:19:00,27.7,25.7,29.86,NNE,14,3.0,3.0,92,0.00,,,0.00,Wunderground v.1.15,2013-02-13 11:19:00,
2013-02-13 06:29:00,27.8,25.8,29.86,NNE,26,3.0,5.0,92,0.00,,,0.00,Wunderground v.1.15,2013-02-13 11:29:00,
2013-02-13 06:39:00,27.8,25.8,29.85,NNE,17,2.0,2.0,92,0.00,,,0.00,Wunderground v.1.15,2013-02-13 11:39:00,
2013-02-13 06:49:00,27.8,25.8,29.85,NNW,345,2.0,3.0,92,0.00,,,0.00,Wunderground v.1.15,2013-02-13 11:49:00,
2013-02-13 06:59:00,27.9,25.9,29.85,NNE,15,2.0,3.0,92,0.00,,,0.00,Wunderground v.1.15,2013-02-13 11:59:00,
2013-02-13 07:09:00,27.9,25.9,29.85,NNE,19,2.0,3.0,92,0.00,,,0.00,Wunderground v.1.15,2013-02-13 12:09:00,
2013-02-13 07:19:00,28.0,26.0,29.84,NNE,15,2.0,3.0,92,0.00,,,0.00,Wunderground v.1.15,2013-02-13 12:19:00,
2013-02-13 07:29:00,28.1,26.1,29.84,NNW,345,2.0,3.0,92,0.00,,,0.00,Wunderground v.1.15,2013-02-13 12:29:00,
2013-02-13 07:39:00,28.1,26.1,29.84,North,355,2.0,2.0,92,0.00,,,0.00,Wunderground v.1.15,2013-02-13 12:39:00,
2013-02-13 07:58:00,28.2,26.2,29.86,North,355,0.0,0.0,92,0.00,,,0.00,Wunderground v.1.15,2013-02-13 12:58:00,
2013-02-13 08:09:00,28.4,26.4,29.86,NNW,340,3.0,3.0,92,0.00,,,0.00,Wunderground v.1.15,2013-02-13 13:09:00,
2013-02-13 08:19:00,28.5,26.5,29.87,NNW,337,2.0,3.0,92,0.00,,,0.00,Wunderground v.1.15,2013-02-13 13:19:00,
2013-02-13 08:29:00,28.5,26.2,29.87,North,355,2.0,2.0,91,0.00,,,0.00,Wunderground v.1.15,2013-02-13 13:29:00,
2013-02-13 08:39:00,28.6,26.3,29.88,NW,323,1.0,1.0,91,0.00,,,0.00,Wunderground v.1.15,2013-02-13 13:39:00,
2013-02-13 08:49:00,28.6,26.3,29.88,NW,325,1.0,1.0,91,0.00,,,0.00,Wunderground v.1.15,2013-02-13 13:49:00,
2013-02-13 08:59:00,28.7,26.4,29.89,NW,325,0.0,0.0,91,0.00,,,0.00,Wunderground v.1.15,2013-02-13 13:59:00,
2013-02-13 09:09:00,28.8,26.5,29.90,NW,325,0.0,0.0,91,0.00,,,0.00,Wunderground v.1.15,2013-02-13 14:09:00,
2013-02-13 09:19:00,28.9,26.6,29.90,NW,324,1.0,1.0,91,0.00,,,0.00,Wunderground v.1.15,2013-02-13 14:19:00,
2013-02-13 09:28:00,29.0,26.4,29.90,NW,324,1.0,1.0,90,0.00,,,0.00,Wunderground v.1.15,2013-02-13 14:28:00,
2013-02-13 09:39:00,29.0,26.4,29.90,NW,324,1.0,1.0,90,0.00,,,0.00,Wunderground v.1.15,2013-02-13 14:39:00,
2013-02-13 09:49:00,29.1,26.5,29.90,NW,324,0.0,0.0,90,0.00,,,0.00,Wunderground v.1.15,2013-02-13 14:49:00,
2013-02-13 09:59:00,29.1,26.5,29.89,NW,324,1.0,1.0,90,0.00,,,0.00,Wunderground v.1.15,2013-02-13 14:59:00,
2013-02-13 10:08:00,29.2,26.6,29.89,NNW,337,3.0,3.0,90,0.00,,,0.00,Wunderground v.1.15,2013-02-13 15:08:00,
2013-02-13 10:19:00,29.2,26.6,29.89,WNW,293,2.0,4.0,90,0.00,,,0.00,Wunderground v.1.15,2013-02-13 15:19:00,
2013-02-13 10:29:00,29.2,26.6,29.89,WNW,288,2.0,2.0,90,0.00,,,0.00,Wunderground v.1.15,2013-02-13 15:29:00,
2013-02-13 10:38:00,29.2,26.6,29.89,WNW,300,2.0,2.0,90,0.00,,,0.00,Wunderground v.1.15,2013-02-13 15:38:00,
2013-02-13 10:49:00,29.2,26.6,29.90,NW,305,1.0,1.0,90,0.00,,,0.00,Wunderground v.1.15,2013-02-13 15:49:00,
2013-02-13 10:58:00,29.2,26.6,29.89,NW,304,0.0,0.0,90,0.00,,,0.00,Wunderground v.1.15,2013-02-13 15:58:00,
2013-02-13 11:09:00,29.1,26.8,29.88,NW,304,0.0,0.0,91,0.00,,,0.00,Wunderground v.1.15,2013-02-13 16:09:00,
2013-02-13 11:19:00,29.0,26.7,29.88,NW,304,1.0,1.0,91,0.00,,,0.00,Wunderground v.1.15,2013-02-13 16:19:00,
2013-02-13 11:29:00,29.0,27.0,29.87,NW,304,1.0,1.0,92,0.00,,,0.00,Wunderground v.1.15,2013-02-13 16:29:00,
2013-02-13 11:38:00,29.1,27.1,29.87,NW,304,0.0,0.0,92,0.00,,,0.00,Wunderground v.1.15,2013-02-13 16:38:00,
2013-02-13 11:49:00,29.2,27.2,29.87,NW,304,0.0,2.0,92,0.00,,,0.00,Wunderground v.1.15,2013-02-13 16:49:00,
2013-02-13 11:59:00,29.3,27.3,29.87,NW,306,1.0,4.0,92,0.00,,,0.00,Wunderground v.1.15,2013-02-13 16:59:00,
2013-02-13 12:08:00,29.5,27.5,29.87,NW,308,1.0,1.0,92,0.00,,,0.00,Wunderground v.1.15,2013-02-13 17:08:00,
2013-02-13 12:14:00,29.6,27.6,29.87,NW,308,0.0,1.0,92,0.00,,,0.00,Wunderground v.1.15,2013-02-13 17:14:00,
2013-02-13 12:29:00,30.2,27.9,29.87,NW,308,0.0,1.0,91,0.00,,,0.01,Wunderground v.1.15,2013-02-13 17:29:00,
2013-02-13 12:38:00,30.4,27.8,29.87,West,273,1.0,1.0,90,0.00,,,0.01,Wunderground v.1.15,2013-02-13 17:38:00,
2013-02-13 12:48:00,30.7,28.1,29.86,West,273,1.0,1.0,90,0.00,,,0.01,Wunderground v.1.15,2013-02-13 17:48:00,
2013-02-13 12:58:00,31.0,28.1,29.85,West,273,1.0,1.0,89,0.00,,,0.01,Wunderground v.1.15,2013-02-13 17:58:00,
2013-02-13 13:09:00,31.3,28.2,29.85,NW,305,2.0,5.0,88,0.00,,,0.01,Wunderground v.1.15,2013-02-13 18:09:00,
2013-02-13 13:19:00,31.5,28.1,29.84,West,277,2.0,2.0,87,0.00,,,0.01,Wunderground v.1.15,2013-02-13 18:19:00,
2013-02-13 13:28:00,31.7,28.3,29.84,NW,306,2.0,2.0,87,0.00,,,0.01,Wunderground v.1.15,2013-02-13 18:28:00,
2013-02-13 13:39:00,32.0,28.3,29.85,West,279,4.0,6.0,86,0.00,,,0.01,Wunderground v.1.15,2013-02-13 18:39:00,
2013-02-13 13:49:00,32.0,27.7,29.84,WNW,291,4.0,4.0,84,0.00,,,0.02,Wunderground v.1.15,2013-02-13 18:49:00,
2013-02-13 13:59:00,32.4,28.4,29.84,West,269,2.0,2.0,85,0.00,,,0.02,Wunderground v.1.15,2013-02-13 18:59:00,
2013-02-13 14:09:00,32.7,28.4,29.84,North,355,2.0,4.0,84,0.00,,,0.02,Wunderground v.1.15,2013-02-13 19:09:00,
2013-02-13 14:18:00,33.0,28.4,29.84,WNW,300,3.0,3.0,83,0.00,,,0.02,Wunderground v.1.15,2013-02-13 19:18:00,
2013-02-13 14:29:00,33.1,28.5,29.84,SW,236,3.0,3.0,83,0.00,,,0.02,Wunderground v.1.15,2013-02-13 19:29:00,
2013-02-13 14:39:00,33.4,28.8,29.84,NW,313,1.0,1.0,83,0.00,,,0.02,Wunderground v.1.15,2013-02-13 19:39:00,
2013-02-13 14:48:00,33.9,28.7,29.84,West,263,2.0,3.0,81,0.00,,,0.02,Wunderground v.1.15,2013-02-13 19:48:00,
2013-02-13 14:59:00,34.6,28.4,29.84,West,278,3.0,3.0,78,0.00,,,0.02,Wunderground v.1.15,2013-02-13 19:59:00,
2013-02-13 15:09:00,35.3,28.5,29.84,West,273,3.0,3.0,76,0.00,,,0.02,Wunderground v.1.15,2013-02-13 20:09:00,
2013-02-13 15:19:00,35.7,27.2,29.84,WSW,239,3.0,3.0,71,0.00,,,0.02,Wunderground v.1.15,2013-02-13 20:19:00,
2013-02-13 15:29:00,36.1,28.6,29.84,WSW,258,3.0,3.0,74,0.00,,,0.02,Wunderground v.1.15,2013-02-13 20:29:00,
2013-02-13 15:39:00,36.9,28.4,29.85,WSW,242,2.0,6.0,71,0.00,,,0.02,Wunderground v.1.15,2013-02-13 20:39:00,
2013-02-13 15:49:00,37.4,28.9,29.85,West,279,3.0,3.0,71,0.00,,,0.02,Wunderground v.1.15,2013-02-13 20:49:00,
2013-02-13 15:58:00,37.8,28.2,29.85,WNW,299,3.0,6.0,68,0.00,,,0.02,Wunderground v.1.15,2013-02-13 20:58:00,
2013-02-13 16:09:00,38.3,28.3,29.85,WNW,285,3.0,3.0,67,0.00,,,0.02,Wunderground v.1.15,2013-02-13 21:09:00,
2013-02-13 16:19:00,38.4,28.4,29.85,SSW,209,4.0,7.0,67,0.00,,,0.02,Wunderground v.1.15,2013-02-13 21:19:00,
2013-02-13 16:29:00,39.2,28.8,29.85,NNW,334,2.0,5.0,66,0.00,,,0.02,Wunderground v.1.15,2013-02-13 21:29:00,
2013-02-13 16:38:00,39.2,27.7,29.85,West,264,3.0,7.0,63,0.00,,,0.02,Wunderground v.1.15,2013-02-13 21:38:00,
2013-02-13 16:49:00,39.2,28.0,29.86,West,262,4.0,6.0,64,0.00,,,0.02,Wunderground v.1.15,2013-02-13 21:49:00,
2013-02-13 16:59:00,39.3,28.1,29.86,WSW,248,3.0,5.0,64,0.00,,,0.02,Wunderground v.1.15,2013-02-13 21:59:00,
2013-02-13 17:09:00,39.2,27.7,29.86,WSW,243,4.0,4.0,63,0.00,,,0.02,Wunderground v.1.15,2013-02-13 22:09:00,
2013-02-13 17:19:00,39.2,27.7,29.87,West,265,3.0,3.0,63,0.00,,,0.02,Wunderground v.1.15,2013-02-13 22:19:00,
2013-02-13 17:29:00,38.9,27.4,29.87,WSW,238,4.0,4.0,63,0.00,,,0.02,Wunderground v.1.15,2013-02-13 22:29:00,
2013-02-13 17:39:00,38.4,27.3,29.87,WSW,256,3.0,4.0,64,0.00,,,0.02,Wunderground v.1.15,2013-02-13 22:39:00,
2013-02-13 17:48:00,38.0,27.3,29.87,West,260,2.0,3.0,65,0.00,,,0.02,Wunderground v.1.15,2013-02-13 22:48:00,
2013-02-13 17:59:00,37.5,27.2,29.88,West,261,2.0,2.0,66,0.00,,,0.02,Wunderground v.1.15,2013-02-13 22:59:00,
2013-02-13 18:08:00,36.8,27.6,29.88,West,260,1.0,2.0,69,0.00,,,0.02,Wunderground v.1.15,2013-02-13 23:08:00,
2013-02-13 18:18:00,35.9,27.4,29.89,West,260,0.0,0.0,71,0.00,,,0.02,Wunderground v.1.15,2013-02-13 23:18:00,
2013-02-13 18:29:00,35.4,26.9,29.89,West,259,1.0,1.0,71,0.00,,,0.02,Wunderground v.1.15,2013-02-13 23:29:00,
2013-02-13 18:38:00,35.1,26.6,29.89,WSW,252,1.0,1.0,71,0.00,,,0.02,Wunderground v.1.15,2013-02-13 23:38:00,
2013-02-13 18:49:00,34.6,26.8,29.90,WSW,252,0.0,0.0,73,0.00,,,0.02,Wunderground v.1.15,2013-02-13 23:49:00,
2013-02-13 18:59:00,33.9,26.5,29.90,WSW,253,0.0,0.0,74,0.00,,,0.02,Wunderground v.1.15,2013-02-13 23:59:00,
2013-02-13 19:08:00,33.2,26.5,29.90,WSW,252,0.0,0.0,76,0.00,,,0.02,Wunderground v.1.15,2013-02-14 00:08:00,
2013-02-13 19:18:00,32.3,26.2,29.91,WSW,252,0.0,0.0,78,0.00,,,0.02,Wunderground v.1.15,2013-02-14 00:18:00,
2013-02-13 19:29:00,31.5,25.7,29.91,WSW,253,0.0,0.0,79,0.00,,,0.02,Wunderground v.1.15,2013-02-14 00:29:00,
2013-02-13 19:39:00,31.9,26.7,29.91,South,181,2.0,4.0,81,0.00,,,0.02,Wunderground v.1.15,2013-02-14 00:39:00,
2013-02-13 19:49:00,32.3,27.4,29.92,SSW,196,2.0,3.0,82,0.00,,,0.02,Wunderground v.1.15,2013-02-14 00:49:00,
2013-02-13 19:59:00,32.4,27.8,29.92,SSW,206,2.0,2.0,83,0.00,,,0.02,Wunderground v.1.15,2013-02-14 00:59:00,
2013-02-13 20:09:00,32.1,27.8,29.92,SW,223,1.0,2.0,84,0.00,,,0.02,Wunderground v.1.15,2013-02-14 01:09:00,
2013-02-13 20:19:00,32.0,28.0,29.92,South,188,1.0,1.0,85,0.00,,,0.02,Wunderground v.1.15,2013-02-14 01:19:00,
2013-02-13 20:29:00,31.7,28.0,29.93,SSW,212,2.0,2.0,86,0.00,,,0.02,Wunderground v.1.15,2013-02-14 01:29:00,
2013-02-13 20:39:00,31.7,28.0,29.92,SW,215,2.0,3.0,86,0.00,,,0.02,Wunderground v.1.15,2013-02-14 01:39:00,
2013-02-13 20:49:00,31.5,28.1,29.92,SW,225,2.0,2.0,87,0.00,,,0.02,Wunderground v.1.15,2013-02-14 01:49:00,
2013-02-13 20:54:00,31.5,28.1,29.92,SSW,207,1.0,2.0,87,0.00,,,0.02,Wunderground v.1.15,2013-02-14 01:54:00,
2013-02-13 21:09:00,31.6,28.2,29.93,WSW,252,3.0,6.0,87,0.00,,,0.02,Wunderground v.1.15,2013-02-14 02:09:00,
2013-02-13 21:19:00,31.8,28.1,29.93,SSW,201,4.0,4.0,86,0.00,,,0.02,Wunderground v.1.15,2013-02-14 02:19:00,
2013-02-13 21:29:00,32.0,28.3,29.93,SSW,205,3.0,3.0,86,0.00,,,0.02,Wunderground v.1.15,2013-02-14 02:29:00,
2013-02-13 21:39:00,32.3,28.3,29.93,SSW,211,4.0,6.0,85,0.00,,,0.02,Wunderground v.1.15,2013-02-14 02:39:00,
2013-02-13 21:49:00,32.5,28.2,29.93,SSW,202,4.0,4.0,84,0.00,,,0.02,Wunderground v.1.15,2013-02-14 02:49:00,
2013-02-13 21:59:00,32.8,28.5,29.94,SW,232,4.0,4.0,84,0.00,,,0.02,Wunderground v.1.15,2013-02-14 02:59:00,
2013-02-13 22:04:00,32.8,28.5,29.93,SSW,213,3.0,4.0,84,0.00,,,0.02,Wunderground v.1.15,2013-02-14 03:04:00,
2013-02-13 22:19:00,33.2,28.6,29.94,WSW,244,4.0,5.0,83,0.00,,,0.02,Wunderground v.1.15,2013-02-14 03:19:00,
2013-02-13 22:29:00,33.1,28.5,29.94,South,175,4.0,5.0,83,0.00,,,0.02,Wunderground v.1.15,2013-02-14 03:29:00,
2013-02-13 22:39:00,33.2,28.6,29.94,SSW,200,3.0,3.0,83,0.00,,,0.02,Wunderground v.1.15,2013-02-14 03:39:00,
2013-02-13 22:49:00,33.1,28.8,29.94,South,183,3.0,7.0,84,0.00,,,0.02,Wunderground v.1.15,2013-02-14 03:49:00,
2013-02-13 23:09:00,33.1,28.8,29.94,SW,224,4.0,7.0,84,0.00,,,0.02,Wunderground v.1.15,2013-02-14 04:09:00,
2013-02-13 23:19:00,33.1,29.1,29.94,SSW,212,4.0,7.0,85,0.00,,,0.02,Wunderground v.1.15,2013-02-14 04:19:00,
2013-02-13 23:28:00,33.0,29.0,29.94,SSW,200,4.0,4.0,85,0.00,,,0.02,Wunderground v.1.15,2013-02-14 04:28:00,
2013-02-13 23:39:00,33.0,29.3,29.94,South,188,3.0,3.0,86,0.00,,,0.02,Wunderground v.1.15,2013-02-14 04:39:00,
2013-02-13 23:49:00,32.9,29.2,29.94,SSW,209,3.0,5.0,86,0.00,,,0.02,Wunderground v.1.15,2013-02-14 04:49:00,
2013-02-13 23:59:00,33.0,29.3,29.94,SW,225,4.0,4.0,86,0.00,,,0.02,Wunderground v.1.15,2013-02-14 04:59:00,